Theta_e
295 295 295 295 294 294 294 294 294 295 295 295 295 295 295 296 297 297 298 298 298 299 299 299 299 299 299 298 298 298 297 297 297 296 296 296 295 295 295 295 295 294 294 294 294 293 293 294 294 294 294 293 293 292 292 292 292 292 292 292 292 292 292 293 293 294 294 295 295 295 295 295 295 295 295 295 295 295 295 295 295 295 295 295 295 295
293 293 294 294 294 294 294 294 295 295 295 295 295 295 295 296 296 297 298 298 298 298 298 298 298 298 298 297 297 297 296 296 296 295 295 295 295 295 294 294 294 294 293 293 293 293 293 293 293 293 293 292 292 292 291 291 291 291 291 291 291 291 292 292 293 293 293 294 294 294 294 294 294 294 294 294 294 294 294 294 294 294 294 295 295 295
292 292 293 293 293 293 294 294 294 295 295 295 295 295 295 296 296 297 297 297 297 297 297 297 297 297 297 296 296 296 296 296 295 295 294 294 294 294 294 293 293 293 293 293 293 293 293 293 293 293 292 292 291 291 291 291 291 291 291 291 291 291 292 292 292 293 293 293 293 293 293 293 293 293 293 293 293 293 293 294 294 294 294 294 295 295
292 292 292 292 293 293 293 294 294 294 294 295 295 295 295 295 296 296 296 296 297 297 296 296 296 296 296 296 296 296 296 295 295 294 294 293 293 293 293 293 293 293 293 293 293 293 293 293 292 292 292 291 291 291 291 290 290 290 291 291 291 292 292 292 293 293 293 293 293 293 293 293 293 292 292 293 293 293 293 293 293 294 294 294 294 295
292 292 292 292 292 293 293 293 293 293 293 294 294 294 294 295 295 295 295 295 295 296 296 296 296 296 296 296 295 295 295 294 294 293 293 293 293 292 292 293 293 293 293 293 293 292 292 292 291 291 291 291 290 290 290 290 290 290 291 291 292 292 292 292 293 293 293 293 292 292 292 292 292 292 292 292 292 293 293 293 293 293 293 294 294 294
292 292 292 292 292 293 293 293 293 293 293 293 293 293 293 294 294 294 294 295 295 295 295 295 295 295 295 295 295 294 294 293 292 292 292 292 292 292 292 292 292 292 292 292 292 291 291 291 290 290 290 290 290 290 290 290 290 290 291 291 291 292 292 292 292 292 292 292 292 292 292 292 292 292 292 292 292 292 292 292 293 293 293 293 293 294
292 292 292 292 292 292 292 292 293 293 293 293 293 293 293 293 293 293 294 294 294 294 294 294 294 294 294 293 293 293 292 292 291 291 291 291 291 291 291 291 291 291 291 290 290 290 290 289 289 289 289 289 289 289 289 289 289 289 290 290 291 291 291 291 291 291 291 291 291 291 291 291 291 291 291 291 291 291 292 292 292 292 293 293 293 293
293 292 292 292 292 292 292 292 292 292 293 293 293 292 293 293 293 293 293 293 293 293 293 293 292 292 292 291 291 291 290 290 290 290 290 290 290 290 290 290 290 290 289 289 289 289 288 288 288 288 288 288 288 288 288 288 288 288 289 289 290 290 290 290 290 290 290 291 291 291 291 291 291 291 291 291 291 291 291 291 292 292 292 293 293 293
293 292 292 292 292 292 292 292 292 292 292 292 292 292 292 292 292 292 292 292 292 292 291 291 291 290 290 290 290 289 289 289 289 289 289 289 289 289 290 289 289 289 289 288 288 288 288 287 287 287 287 287 287 286 286 286 287 287 287 288 288 289 289 289 290 290 290 290 290 290 290 290 290 290 290 290 290 291 291 291 291 292 292 292 293 293
292 292 292 292 292 292 292 292 292 292 292 292 292 291 291 291 291 291 291 291 290 290 290 290 289 289 289 289 289 289 289 288 288 288 288 288 288 288 289 289 289 288 288 288 288 287 287 287 286 286 286 286 285 285 285 285 285 285 286 286 287 288 288 288 289 289 289 289 289 289 289 290 290 290 290 290 290 291 291 291 291 291 292 292 292 293
292 292 292 291 291 291 291 291 291 291 291 291 291 291 290 290 290 290 290 290 290 289 289 289 289 289 289 289 288 288 288 288 288 288 288 288 288 288 288 288 288 288 287 287 287 287 286 286 286 286 286 285 285 284 284 284 284 284 285 285 286 286 287 287 288 288 288 288 288 288 289 289 289 289 290 290 290 291 291 291 291 291 292 292 292 292
291 291 291 291 291 291 291 291 291 291 290 290 290 290 290 290 290 290 290 290 289 289 289 289 289 288 288 288 288 288 288 288 288 288 288 288 288 287 287 287 287 287 286 286 286 286 286 286 286 285 285 285 284 284 284 283 283 283 283 284 284 285 286 286 286 286 286 287 287 288 289 289 289 289 290 290 291 291 291 291 291 291 292 292 292 292
290 290 291 291 291 291 290 290 290 290 290 290 289 289 289 289 289 289 289 289 289 289 288 288 288 288 288 288 288 288 288 288 288 287 287 287 287 287 286 286 286 286 286 286 286 286 286 285 285 285 285 284 284 283 283 283 283 283 283 283 283 284 284 285 285 286 286 287 287 288 289 289 290 290 290 290 291 291 291 291 291 291 291 292 292 292
290 290 290 290 290 290 290 289 289 289 288 288 288 288 288 288 288 288 288 288 288 288 288 288 288 288 288 288 288 287 287 287 287 287 286 286 286 286 286 285 285 285 285 285 285 285 285 285 284 284 284 283 283 283 283 283 283 283 283 283 283 284 284 284 285 286 287 288 288 289 289 290 290 290 290 290 291 291 291 291 291 291 291 291 292 292
290 289 290 290 289 289 288 288 288 288 288 288 288 288 288 288 288 288 288 288 288 288 288 288 288 288 287 287 287 287 287 286 286 286 285 285 285 285 285 285 285 285 285 285 285 285 285 284 283 283 283 283 283 283 283 283 283 283 283 283 284 284 284 285 286 287 288 288 289 289 289 290 290 290 290 290 291 291 291 291 291 291 291 291 291 292
289 289 289 288 288 288 288 288 288 288 288 288 288 288 288 288 288 287 287 287 287 287 287 287 287 287 287 286 286 286 286 285 285 285 285 285 285 285 285 285 285 285 285 285 285 284 283 283 282 282 283 283 283 283 283 283 283 284 284 284 285 285 286 287 287 288 288 289 289 289 289 290 290 290 290 290 290 290 290 291 291 291 291 291 291 291
288 288 288 288 288 288 288 288 287 287 287 287 287 287 287 287 287 287 286 286 286 286 286 286 286 286 286 285 285 285 285 285 284 284 285 285 285 285 285 285 285 285 285 284 283 283 282 282 282 283 283 283 283 283 283 284 284 284 285 285 286 286 287 287 288 288 288 288 289 289 289 289 289 290 290 290 290 290 290 290 290 291 291 291 291 291
288 288 288 287 287 287 287 287 286 286 286 286 286 286 286 286 286 285 285 285 285 285 285 285 285 285 285 285 285 284 285 285 285 285 285 285 285 285 285 285 285 284 284 283 282 282 282 282 283 283 283 283 283 283 283 283 284 284 285 285 286 286 286 287 287 287 287 288 288 288 289 289 289 289 290 290 290 290 290 290 290 290 290 290 290 291
288 288 287 287 286 286 286 286 286 286 286 286 286 286 285 285 285 285 285 285 285 285 285 285 285 285 285 285 285 284 285 285 285 285 284 284 285 285 284 284 283 283 282 282 282 282 282 282 283 283 283 283 283 283 283 283 283 284 284 285 285 285 286 286 286 286 287 287 287 288 288 289 289 289 289 289 290 290 290 290 290 290 290 290 290 290
288 287 287 287 286 286 286 286 286 286 286 286 286 285 285 285 285 285 285 285 285 285 285 285 285 285 285 285 285 285 285 285 285 284 284 284 283 283 283 282 282 282 281 282 282 282 282 282 282 283 283 283 283 283 283 283 283 283 284 284 284 285 285 285 286 286 287 287 287 287 288 288 289 289 289 289 289 289 290 290 290 290 290 290 290 290
287 287 287 286 286 286 286 285 285 285 285 285 285 285 285 285 285 285 285 285 285 285 285 285 285 284 284 284 284 284 284 284 284 283 283 282 282 282 282 281 281 281 281 282 282 282 282 282 283 283 283 283 283 283 283 283 283 284 284 284 284 284 285 285 286 286 287 287 287 287 288 288 289 289 289 289 289 289 289 289 289 289 289 289 289 289
287 286 286 286 286 286 285 285 285 285 285 285 285 285 285 285 285 285 285 285 285 285 285 284 284 284 284 284 284 284 284 283 283 282 281 281 281 281 281 281 281 281 282 282 282 282 282 282 283 283 283 283 283 283 283 283 284 284 284 284 284 285 285 285 286 286 287 287 287 288 288 288 288 289 289 289 289 289 289 289 289 289 289 289 289 289
286 286 286 286 286 285 285 285 285 285 285 285 285 285 285 285 285 285 285 285 285 284 284 284 284 284 284 283 283 283 283 282 282 281 281 281 281 281 281 281 281 281 282 282 282 282 283 283 283 283 283 283 283 284 284 284 284 284 284 284 285 285 285 286 286 287 287 287 287 288 288 288 288 288 288 288 288 288 288 288 288 288 288 288 288 288
286 286 286 286 286 285 285 285 285 285 285 285 285 285 285 284 284 284 284 284 284 284 284 284 283 283 283 283 282 282 282 282 281 281 281 281 281 281 281 281 281 281 281 282 282 283 283 283 284 284 284 284 284 284 284 284 284 284 284 285 285 285 286 286 286 287 287 287 287 287 287 287 287 287 288 288 288 288 288 288 288 288 288 288 288 288
286 285 285 285 285 285 285 285 285 285 284 284 284 284 284 284 284 284 284 284 284 283 283 283 283 283 282 282 282 282 281 281 281 281 280 281 281 281 281 281 281 281 281 282 282 283 283 283 284 284 284 284 284 284 284 284 284 284 284 285 285 285 286 286 286 286 286 286 286 286 286 286 287 287 287 287 287 287 287 287 287 287 287 288 288 288
285 285 285 285 285 285 284 284 284 284 284 284 284 284 284 284 284 284 284 284 283 283 283 283 283 283 282 282 281 281 281 281 281 281 280 280 280 281 281 281 281 281 281 281 282 282 282 283 283 283 283 283 284 284 284 284 284 284 284 284 285 285 285 285 285 285 285 285 285 285 286 286 286 286 286 286 286 286 287 287 287 287 287 287 287 287
285 285 285 284 284 284 284 284 284 283 283 283 283 283 283 284 284 284 284 284 284 283 283 283 283 283 283 282 281 281 281 281 281 281 281 280 280 281 281 281 281 281 281 281 281 282 282 282 282 282 282 283 283 283 283 283 283 284 284 284 284 284 284 284 284 284 285 285 285 285 285 285 285 285 285 286 286 286 286 286 287 287 287 287 287 287
284 284 284 284 284 284 284 284 283 283 283 283 283 283 283 283 284 284 284 284 284 284 283 283 283 283 283 282 282 282 281 281 281 281 281 280 280 281 281 281 281 280 280 280 281 282 282 282 282 282 282 282 282 282 283 283 283 283 283 283 283 284 284 284 284 284 284 284 284 284 284 284 284 285 285 286 286 286 286 286 286 286 286 286 286 287
283 283 283 283 283 283 283 283 283 282 282 282 282 282 282 282 283 283 283 283 283 283 283 283 283 283 282 282 281 281 281 281 281 281 281 280 281 281 281 281 280 280 280 280 280 281 282 282 281 281 282 282 282 282 283 283 283 283 283 283 283 284 284 284 284 284 284 284 284 284 284 284 284 284 285 285 285 285 285 286 286 286 286 286 286 286
283 283 283 283 283 283 282 282 282 282 282 281 281 280 280 281 281 281 282 282 282 282 282 282 282 282 282 281 281 281 281 281 281 281 281 281 281 281 281 281 280 280 279 280 281 281 282 281 281 281 282 282 282 282 283 283 283 283 284 284 284 284 284 284 284 284 284 284 284 284 284 284 284 284 284 284 284 284 285 285 285 285 285 285 285 285
283 283 283 283 283 282 282 282 282 282 282 281 281 280 279 279 279 279 280 280 281 281 281 281 281 281 281 281 281 281 281 281 281 281 281 280 281 281 281 280 280 279 279 279 280 282 282 281 281 281 281 282 282 282 283 283 283 284 284 284 284 284 284 283 284 284 284 284 284 284 284 284 284 283 283 283 283 284 284 284 284 285 285 285 285 285
283 283 283 282 282 282 282 282 282 281 281 281 280 279 279 279 279 279 279 280 280 280 280 280 281 280 280 280 281 281 281 281 281 281 280 280 280 280 280 280 280 280 279 279 280 280 281 281 281 281 281 281 281 282 282 283 283 283 283 283 283 283 283 283 283 283 283 283 283 283 283 283 283 283 283 283 283 283 283 283 284 284 284 284 284 284
282 282 282 282 281 281 281 281 281 281 280 280 279 279 279 279 279 279 280 280 280 280 280 280 280 280 280 280 280 280 280 281 281 281 280 280 280 280 280 280 280 280 280 280 280 280 280 280 281 281 281 281 281 281 281 282 282 282 282 282 282 282 282 282 282 282 282 283 283 283 283 283 283 283 283 282 282 282 282 282 283 283 283 284 284 284
281 281 281 281 281 281 281 280 280 279 279 279 279 279 279 279 279 280 280 280 280 280 280 280 280 280 280 280 280 280 280 281 281 281 280 280 280 280 280 280 280 280 280 280 280 280 280 280 280 280 281 281 281 281 281 281 281 281 281 281 281 281 281 281 281 281 282 282 282 282 282 282 282 282 282 282 282 282 282 282 282 282 283 283 283 284
281 281 281 281 280 280 280 279 279 278 278 279 279 279 279 279 280 280 280 280 280 280 280 280 280 280 280 280 280 280 281 281 281 281 280 280 280 280 280 280 280 280 280 280 280 280 280 281 281 281 281 281 281 282 281 281 281 281 281 281 281 281 281 281 281 281 281 281 281 281 281 281 281 281 281 281 281 281 281 282 282 282 283 283 283 284
281 281 281 280 280 279 278 278 278 278 278 278 279 279 279 280 280 280 280 280 280 280 280 280 280 280 280 280 280 280 281 281 281 280 280 280 280 280 280 280 280 280 280 280 280 280 280 280 280 280 281 281 281 282 282 281 281 281 281 281 281 281 281 281 281 281 281 281 281 281 281 281 281 281 281 281 281 281 281 282 282 282 282 283 283 283
280 280 280 279 278 278 277 277 278 278 278 279 279 279 279 279 279 280 280 280 280 280 280 280 280 280 280 280 280 280 281 281 280 280 280 280 280 280 280 280 280 280 280 280 280 280 280 280 280 280 280 281 282 282 282 281 281 281 281 281 280 280 280 280 280 280 281 281 281 281 281 281 281 281 281 281 281 281 281 281 281 281 281 282 282 282
280 279 279 278 278 277 277 278 278 278 278 278 279 279 279 279 279 279 279 280 280 280 280 280 280 280 280 280 280 280 280 280 280 280 280 280 280 279 279 280 280 280 280 279 279 280 280 280 280 280 281 281 281 281 281 281 281 281 281 281 281 281 281 281 281 280 280 280 280 280 281 281 281 281 281 281 281 281 281 281 281 281 281 281 281 282
279 278 278 277 277 277 277 278 278 278 278 278 278 278 278 279 279 279 279 279 279 279 279 280 280 280 280 280 280 280 280 280 280 280 280 280 279 279 279 279 279 279 279 279 279 279 279 280 280 280 280 281 281 281 281 281 281 281 281 281 281 281 281 281 281 280 280 280 280 280 281 281 281 281 281 281 281 281 281 281 281 281 281 281 281 281
278 278 277 277 277 278 278 278 278 277 277 277 278 278 278 278 278 278 278 279 279 279 279 279 280 280 280 280 280 280 280 280 280 280 280 279 279 279 279 279 279 279 279 279 279 279 279 279 280 280 280 280 280 280 280 280 280 281 281 281 281 282 281 281 281 281 281 280 280 280 281 281 281 281 281 281 281 281 281 281 281 281 281 281 281 281
278 277 277 277 278 278 277 277 276 277 277 277 277 277 277 278 278 278 278 278 279 279 279 279 280 280 280 280 280 280 280 280 280 280 279 279 279 279 279 279 279 279 279 279 279 279 279 279 279 280 280 280 280 280 280 280 281 281 281 281 281 281 281 281 281 281 281 280 280 280 280 281 281 281 281 281 281 281 281 281 281 281 281 281 281 281
277 277 277 277 277 277 276 276 276 276 276 276 276 277 277 277 277 278 278 279 279 279 279 279 279 279 279 280 280 280 280 280 279 279 279 279 279 279 279 279 279 279 279 279 279 279 279 279 279 279 280 280 280 280 280 280 280 280 281 281 281 280 281 281 281 281 280 280 280 280 281 281 281 281 281 281 281 281 281 281 281 281 281 281 281 281
277 277 277 277 277 277 276 276 276 276 276 276 276 276 277 277 277 277 278 278 279 279 279 279 279 279 279 280 280 280 280 280 280 280 280 279 279 279 279 279 279 279 279 279 279 279 279 279 279 279 279 279 279 280 280 280 280 280 280 280 280 280 280 281 281 281 280 280 280 280 280 280 281 281 281 281 281 281 281 281 281 281 281 281 281 281
277 277 277 277 277 276 276 276 276 276 276 276 276 276 276 277 277 277 278 278 278 278 278 278 279 279 279 279 279 280 280 280 280 280 280 279 279 279 279 279 279 279 278 278 279 279 279 279 279 279 279 279 279 280 280 280 280 280 280 280 280 280 280 280 280 280 280 280 280 280 280 280 280 281 281 281 281 281 281 281 281 281 281 281 281 281
277 277 277 276 276 276 276 276 276 276 275 275 275 276 276 276 277 277 277 278 278 278 278 278 278 278 279 279 279 279 279 279 279 280 280 279 279 279 279 279 279 279 278 278 278 279 279 279 279 279 279 279 279 279 280 280 280 280 280 280 280 280 280 280 280 280 280 280 280 280 280 281 280 280 281 281 281 281 281 281 281 281 281 281 281 281
277 277 277 277 277 277 277 276 276 276 275 275 275 275 276 276 277 277 277 277 278 278 278 278 278 278 278 279 279 279 279 278 278 279 279 279 279 279 279 279 279 279 279 279 279 279 279 279 279 279 279 279 279 279 279 280 280 280 280 280 280 280 280 280 280 280 280 280 280 280 281 281 281 281 281 281 281 281 281 281 281 281 281 281 281 281
277 277 277 277 277 276 276 276 276 275 275 275 275 275 275 276 276 277 277 277 277 277 277 277 277 278 278 278 278 278 278 278 278 278 278 279 279 279 279 279 279 279 279 279 279 279 279 279 279 279 279 279 279 279 280 280 280 280 280 280 280 280 280 280 280 280 280 280 281 281 281 281 281 281 281 281 281 281 281 281 281 281 281 281 281 281
277 277 277 277 277 276 276 276 275 275 275 275 275 275 275 276 276 276 277 277 277 277 277 277 277 278 278 278 278 278 278 278 278 278 278 278 278 279 279 279 279 279 279 279 279 279 279 279 279 279 279 279 279 279 280 280 280 280 280 280 280 280 280 280 280 281 281 281 281 281 281 281 281 281 281 281 281 281 281 281 281 281 281 281 281 281
277 277 277 276 276 276 276 276 276 275 275 275 275 275 275 275 276 276 276 276 276 276 276 277 277 277 278 278 278 278 278 278 278 278 278 278 278 278 278 278 278 278 278 278 279 279 279 279 279 279 279 279 279 279 280 280 280 280 280 280 280 280 280 280 281 281 281 281 281 281 281 281 281 281 281 281 281 281 281 281 281 281 281 281 281 281
276 276 276 276 276 276 276 276 276 275 275 275 275 275 275 275 275 276 276 276 275 276 276 277 277 277 278 278 278 277 277 277 278 278 278 278 278 278 278 278 278 278 278 279 279 279 279 279 279 279 279 280 280 280 280 280 280 280 280 280 280 280 281 281 281 281 281 281 281 281 281 281 280 280 281 281 281 281 281 281 281 281 281 281 281 281
276 276 276 276 276 276 276 275 275 275 275 275 275 275 275 275 275 275 275 275 276 276 276 277 277 277 277 277 277 277 277 277 278 278 278 278 278 278 278 278 278 279 279 279 279 279 280 280 280 280 280 280 280 280 280 281 281 281 281 281 281 281 281 281 281 281 281 281 281 281 281 280 280 281 281 281 281 281 281 281 281 281 281 281 281 281
Wind_Speed
4 3 4 5 4 2 1 1 1 1 1 1 2 2 2 3 5 6 7 9 10 11 12 13 13 13 13 12 12 11 10 9 9 10 11 12 13 14 14 15 14 13 11 10 9 8 8 8 8 8 8 9 9 9 9 9 11 12 13 14 15 15 15 15 15 14 14 14 13 12 12 11 11 10 10 10 10 10 10 10 10 10 11 11 11 11
3 3 4 5 4 2 2 1 1 1 2 3 3 4 5 6 7 8 9 9 10 11 12 12 12 12 11 10 9 9 9 9 11 12 12 12 12 13 13 12 11 10 9 8 7 7 8 8 8 8 8 8 8 8 9 10 12 13 14 15 15 15 15 15 14 14 13 13 13 12 12 11 11 11 11 11 11 11 11 11 11 11 11 11 11 11
2 3 3 4 3 2 2 2 2 2 3 3 4 5 6 8 8 9 10 10 10 11 11 11 11 10 10 9 9 10 11 12 13 13 11 10 10 9 9 9 8 7 7 7 7 8 8 8 8 7 7 8 8 9 10 11 13 13 14 14 15 14 14 14 13 13 13 12 12 11 11 11 11 11 11 11 11 11 11 11 11 11 11 11 11 11
1 1 1 2 2 1 2 3 3 3 3 3 3 4 5 7 8 9 10 10 10 10 10 10 10 10 10 11 12 13 14 14 13 11 9 8 7 7 7 7 6 6 7 7 7 7 7 7 7 7 7 8 9 10 11 12 12 13 14 14 14 13 13 12 12 12 11 11 10 10 10 10 10 10 10 10 10 10 11 11 11 11 11 11 11 10
2 1 1 1 0 0 1 2 4 4 4 4 4 4 5 5 6 7 8 8 9 9 9 10 11 11 12 13 14 15 15 13 10 8 7 6 6 6 6 6 6 6 6 7 6 6 6 6 6 7 8 9 10 10 11 12 12 13 13 13 13 12 12 11 11 11 10 10 10 9 9 9 10 10 10 10 10 10 10 11 10 10 10 10 10 10
2 1 1 0 1 1 2 3 4 5 5 5 5 5 5 6 7 8 8 9 9 10 11 12 13 13 14 14 14 14 13 10 8 7 6 6 5 5 5 5 6 6 5 5 5 5 5 6 7 8 9 10 10 11 12 12 12 12 12 12 12 12 11 11 11 10 10 10 10 10 10 10 10 10 11 11 11 11 11 11 11 11 10 10 10 10
2 1 1 0 1 1 2 4 5 6 7 7 8 8 9 9 10 10 10 11 12 12 13 13 13 13 12 12 11 10 9 8 7 8 8 7 7 6 5 5 5 4 4 4 4 5 6 7 8 9 10 11 12 13 13 13 13 13 13 12 12 12 12 11 11 11 11 11 11 11 11 11 11 11 12 12 12 12 12 11 11 11 11 11 11 10
2 1 0 1 1 2 3 4 5 6 8 8 8 8 9 10 10 10 10 10 10 10 10 9 8 7 6 6 6 6 6 6 6 7 7 8 8 7 6 6 6 6 6 6 6 7 8 9 10 11 12 13 14 14 15 15 14 14 14 14 13 13 13 12 12 12 12 12 12 12 12 12 12 13 13 12 12 12 12 12 12 11 11 11 11 11
2 1 0 1 1 2 3 4 4 6 7 7 7 6 6 6 6 6 6 6 5 5 4 4 3 3 3 3 4 4 5 5 5 6 7 7 8 8 8 8 9 9 9 8 9 10 11 12 13 14 15 16 17 17 17 17 17 16 16 15 15 15 14 13 13 13 13 13 13 13 13 13 13 13 13 13 13 12 12 12 12 11 11 11 11 11
2 1 1 1 1 2 2 2 3 4 4 5 5 4 3 3 3 2 2 2 2 2 2 2 3 3 4 4 4 5 5 6 6 7 7 8 8 8 9 9 10 11 11 11 12 13 14 15 16 18 19 19 20 20 20 19 19 18 17 16 16 15 15 15 14 14 14 14 14 14 14 14 14 14 13 13 12 12 12 12 11 11 11 11 11 11
3 2 2 2 2 2 2 2 2 2 1 2 1 1 1 2 2 2 2 2 2 2 2 3 4 5 5 6 6 7 7 8 8 8 9 9 9 9 10 10 11 11 12 13 14 15 16 17 18 20 21 22 23 23 22 22 20 19 18 17 16 16 16 16 16 15 15 15 15 15 14 14 13 13 12 12 12 12 11 11 11 11 11 11 11 11
4 3 3 3 3 2 2 2 1 1 1 1 0 1 1 2 2 2 3 3 4 4 4 5 5 6 6 7 7 7 8 8 9 9 9 9 9 10 10 10 11 12 13 14 15 16 17 18 20 22 23 24 24 24 23 22 21 20 18 17 17 16 16 16 16 16 16 16 15 14 13 13 12 12 12 12 11 11 11 11 11 11 11 11 11 12
4 3 3 3 3 3 2 2 1 1 1 1 1 2 2 2 2 3 4 4 5 5 5 5 5 5 6 6 6 7 7 7 8 8 9 9 10 10 11 12 12 13 14 15 16 17 18 20 22 23 24 24 24 23 22 21 20 19 17 17 16 16 16 16 16 15 15 14 13 13 12 12 12 11 11 11 11 11 11 11 11 12 12 12 12 12
3 3 2 2 3 2 2 1 1 1 1 2 2 2 2 2 2 3 4 4 5 5 5 5 5 5 5 5 6 6 7 7 7 8 8 9 10 11 12 13 14 14 15 16 18 19 20 22 23 23 23 23 22 21 19 18 17 16 15 15 15 14 14 14 14 13 12 12 12 12 12 12 11 11 11 11 12 12 12 12 12 12 12 12 12 13
3 3 3 3 3 2 2 1 1 1 1 2 2 2 2 2 3 3 3 4 4 4 4 4 5 5 5 6 6 7 7 8 8 9 9 10 11 12 12 14 15 16 17 18 20 21 21 21 20 20 20 19 18 17 16 15 14 13 13 13 12 12 12 11 11 11 11 11 12 12 12 12 12 12 12 12 12 12 12 12 12 12 13 13 13 13
3 3 2 3 2 2 1 1 0 0 1 1 1 1 2 2 2 2 2 3 3 3 3 4 4 5 5 6 6 6 7 8 8 9 10 11 11 12 13 15 17 18 20 21 21 21 19 17 16 16 16 15 14 14 13 12 11 11 10 10 10 10 10 10 10 11 11 11 11 12 12 12 12 12 12 12 12 12 13 13 13 13 13 13 14 14
3 3 3 3 2 2 2 1 1 1 1 1 1 1 1 1 1 1 1 1 2 2 2 2 3 3 3 4 4 5 6 6 7 9 10 12 13 14 15 17 19 20 21 21 19 17 14 12 12 12 12 12 11 11 10 10 9 9 9 9 9 9 10 10 11 11 11 11 12 12 12 12 12 12 12 13 13 13 13 13 13 14 14 14 14 14
4 4 4 4 4 3 3 3 3 3 3 3 3 3 2 2 1 1 1 1 2 2 2 1 2 3 3 3 2 3 5 6 8 10 13 15 16 17 18 18 19 20 20 18 15 12 10 9 9 9 10 10 10 10 9 9 9 9 9 9 10 10 11 11 11 11 12 12 12 12 12 12 12 13 13 13 13 13 13 14 14 14 14 14 14 15
4 4 4 5 5 4 4 4 4 4 4 4 4 3 3 2 2 2 2 2 2 2 2 2 3 4 4 4 5 6 7 9 11 14 15 14 15 17 19 18 18 18 17 15 13 10 9 9 9 9 9 10 10 10 10 10 10 10 11 11 11 11 12 12 12 12 12 13 13 13 13 13 13 13 13 13 13 13 13 14 14 14 14 14 15 15
4 4 4 4 4 3 3 3 3 3 3 3 3 2 2 2 2 3 3 3 4 4 5 5 4 5 5 6 7 9 10 12 13 15 14 13 15 17 17 16 15 15 15 13 12 11 10 11 10 10 10 10 10 10 11 11 11 11 12 12 12 12 12 13 13 13 13 13 13 13 13 13 13 13 13 13 13 13 13 14 14 14 14 15 15 15
4 4 4 3 3 3 2 2 2 2 3 3 2 1 1 2 3 3 4 5 5 6 6 6 5 5 6 7 8 10 12 13 14 14 13 13 14 15 14 13 13 14 14 13 12 11 11 12 11 11 10 10 10 10 11 11 12 12 12 12 12 12 13 13 13 13 13 13 12 12 12 12 12 12 12 12 13 13 13 14 14 14 15 15 16 16
3 3 3 2 2 2 1 1 1 2 2 2 1 1 2 3 4 4 5 5 6 6 6 6 6 7 8 8 10 11 13 13 12 12 12 10 11 13 12 12 13 14 15 14 13 12 12 12 11 10 10 9 10 10 11 11 12 12 12 12 12 12 12 12 12 12 11 11 11 11 11 11 11 11 12 12 12 13 13 14 14 15 15 16 17 17
2 2 1 1 1 1 0 1 1 2 3 3 3 3 4 5 6 6 6 6 6 7 7 7 8 9 10 10 11 12 12 11 11 11 9 6 8 11 12 13 14 15 15 15 14 13 13 12 11 10 9 9 9 10 10 11 11 11 11 11 11 11 11 10 10 9 9 10 10 10 10 10 11 11 12 12 13 14 14 15 15 16 16 17 17 18
2 1 1 1 0 0 1 2 3 3 4 5 5 6 7 7 8 8 8 8 8 8 8 9 10 11 11 11 11 11 11 10 10 9 7 6 8 11 13 14 14 15 15 15 15 16 15 14 11 9 7 8 8 9 10 10 10 10 10 9 9 9 8 8 8 8 9 9 9 10 10 11 12 12 13 13 14 15 15 16 16 17 17 17 18 18
2 2 1 0 0 1 2 3 3 4 5 6 6 7 7 8 9 9 9 10 9 9 9 9 9 9 10 11 11 10 10 9 9 8 7 7 9 12 13 13 13 14 15 17 18 18 17 15 11 7 6 6 7 8 8 8 8 7 7 7 7 7 7 8 9 9 10 11 11 12 12 13 14 14 15 15 15 16 16 16 16 17 17 17 18 18
2 2 1 1 0 1 1 2 3 4 5 6 7 8 8 9 10 10 10 10 10 9 8 8 8 8 9 9 10 9 9 9 9 9 8 7 8 11 12 12 12 14 16 19 20 19 17 13 9 5 4 5 6 6 7 7 6 6 6 7 7 8 8 9 10 11 12 13 13 14 15 15 16 16 16 15 15 15 15 15 15 15 16 17 17 18
3 3 3 2 3 3 4 4 5 5 5 7 8 9 9 10 11 11 11 11 10 9 8 8 8 8 8 9 9 9 9 10 10 10 10 9 8 9 10 10 12 14 17 20 20 18 14 10 6 3 3 4 5 6 7 7 7 7 6 6 7 8 9 10 12 13 14 14 15 15 15 15 15 15 14 14 14 14 14 14 14 15 15 16 17 18
4 5 5 6 7 7 8 9 9 9 10 10 9 9 10 11 11 10 10 11 11 10 9 9 9 8 7 8 10 11 12 12 12 10 9 8 6 7 9 10 12 15 17 18 18 16 10 5 2 2 3 4 5 6 6 6 6 5 5 6 7 9 11 12 13 13 14 14 14 14 13 13 13 13 13 13 13 13 13 14 14 15 15 16 16 17
8 8 9 10 10 10 10 10 10 11 11 11 10 10 11 13 13 13 13 13 12 10 10 10 10 9 9 10 12 14 13 12 9 7 6 5 5 6 8 9 11 14 16 15 14 12 8 3 1 3 4 5 5 5 5 4 4 5 7 10 11 12 12 12 11 11 11 11 11 11 11 12 12 12 13 13 13 13 14 14 14 15 15 16 16 16
9 9 9 10 10 10 10 10 11 11 11 11 11 11 13 15 15 15 15 14 12 11 11 11 11 10 10 10 10 9 8 6 5 4 4 3 4 6 8 9 11 13 13 11 8 7 6 3 1 3 4 4 4 4 4 6 9 11 12 12 11 10 9 9 8 8 9 9 10 11 11 12 12 13 13 14 14 14 14 14 14 14 15 15 15 15
9 9 9 9 10 11 12 12 13 13 13 12 11 11 11 12 14 15 15 14 13 12 12 12 11 11 10 7 4 2 2 3 3 4 5 4 5 6 8 9 10 10 10 7 5 4 4 3 1 2 3 5 8 11 13 14 14 13 12 10 9 8 8 8 8 9 10 11 11 12 12 13 13 13 13 14 14 14 14 14 14 14 14 15 15 15
9 9 10 11 12 13 14 15 15 16 15 14 12 10 9 9 10 11 12 12 12 12 12 12 12 12 11 8 6 4 4 5 6 8 8 6 6 8 9 8 8 8 8 6 4 3 2 3 4 7 9 12 15 17 17 15 13 11 10 10 10 10 10 10 11 12 13 13 13 13 13 12 12 13 13 13 13 14 14 14 14 14 14 14 15 15
10 10 11 12 14 15 16 17 17 16 15 13 11 9 7 7 7 8 9 9 10 10 11 11 11 11 11 11 11 10 10 10 10 11 10 8 7 7 8 8 7 7 7 6 5 5 5 7 9 12 13 14 13 14 14 14 13 12 11 11 12 13 13 14 14 15 15 15 14 13 13 12 12 12 12 13 13 14 14 14 14 13 14 14 14 15
11 12 13 14 15 16 17 17 16 14 12 10 8 7 6 6 6 6 7 7 8 8 9 9 9 10 10 11 12 12 13 12 10 10 10 9 7 7 8 7 7 7 7 7 7 7 8 10 11 12 12 12 12 11 12 13 13 12 12 12 13 14 15 16 16 16 16 15 15 14 14 13 13 13 14 14 14 14 13 13 12 12 13 13 14 15
13 14 15 16 17 17 16 15 13 11 9 8 7 6 6 6 6 6 6 7 7 8 8 8 8 9 9 10 11 11 13 10 8 8 9 8 8 7 8 8 8 7 7 7 7 7 8 10 11 11 12 13 12 11 11 12 12 13 14 14 15 16 17 17 17 16 16 15 15 15 15 15 16 16 16 15 14 14 13 12 12 12 13 14 15 15
15 16 16 17 16 15 13 11 9 7 7 7 7 6 7 7 7 7 7 8 8 8 9 9 9 10 10 11 12 12 13 10 9 9 10 10 10 9 8 8 8 8 7 8 8 8 9 10 11 12 12 12 12 11 10 11 13 14 15 15 15 16 17 17 16 15 15 15 15 16 16 17 17 17 16 15 14 13 13 13 13 14 14 15 15 16
16 16 16 16 14 12 9 7 6 6 7 7 7 7 8 8 8 9 9 9 9 10 10 11 11 12 12 13 14 14 14 13 12 12 12 13 13 12 10 10 10 9 8 8 9 9 10 10 11 12 11 11 10 10 10 12 13 13 13 13 13 14 15 15 15 14 14 15 15 16 16 17 16 16 15 15 14 14 14 14 15 15 15 15 15 16
16 16 15 13 11 9 6 5 5 6 6 7 7 8 8 9 9 10 10 11 11 12 12 13 13 14 14 15 16 16 16 16 15 15 14 14 14 14 13 12 11 11 10 10 10 10 10 10 10 10 10 11 11 11 12 12 13 13 13 13 13 13 13 13 13 13 14 15 16 17 16 15 15 14 15 15 16 16 17 17 16 15 14 14 15 15
15 14 13 11 8 6 5 5 5 6 6 6 7 8 9 10 10 11 11 12 12 13 14 14 14 15 15 16 16 16 17 17 16 15 15 14 14 14 14 13 12 11 11 11 11 11 11 10 10 10 10 11 12 13 13 13 13 13 14 14 14 13 11 11 12 13 14 15 16 16 15 14 14 14 15 17 17 17 16 15 14 13 13 13 14 15
14 12 10 8 7 5 5 5 5 6 6 7 8 9 9 10 11 11 12 12 12 13 13 14 14 14 14 15 15 16 16 16 16 15 15 14 14 14 15 14 13 12 12 12 12 12 12 12 12 12 12 12 13 14 14 14 14 14 15 14 14 13 12 12 12 13 13 14 14 13 13 13 14 14 15 15 14 14 14 14 14 13 13 13 14 14
12 10 8 7 6 5 5 6 7 7 8 8 9 9 10 10 10 11 11 11 11 11 12 12 12 13 13 14 14 14 14 14 14 14 14 13 13 13 14 14 14 13 12 11 11 12 12 12 12 13 13 13 14 15 15 15 15 15 15 14 14 15 15 15 14 13 12 12 13 13 13 13 13 14 14 14 14 14 14 15 15 15 15 14 14 14
10 9 8 7 7 6 7 8 8 9 9 9 9 10 10 10 10 10 10 9 9 9 9 9 10 11 12 12 12 12 12 13 13 13 12 12 11 11 12 12 13 12 12 12 12 12 12 12 13 13 13 13 14 15 16 16 15 14 14 14 16 17 17 15 13 11 11 12 13 13 14 14 14 14 14 14 15 15 15 15 16 16 16 15 15 15
9 8 8 8 8 8 9 9 9 9 10 10 10 10 9 9 9 9 9 9 8 8 8 8 9 10 11 12 12 11 10 10 10 10 10 10 9 9 10 11 11 12 12 12 12 12 13 13 13 14 14 14 14 15 16 17 16 16 15 15 15 15 14 14 13 12 12 13 14 14 14 14 14 14 15 15 16 16 16 16 16 16 16 16 16 16
8 8 8 7 7 8 8 8 8 9 9 10 10 9 8 7 7 8 8 9 8 8 7 8 8 9 10 11 11 10 10 9 8 8 8 8 8 9 9 10 11 12 12 12 12 12 12 13 14 14 14 14 15 16 17 17 17 17 16 15 15 14 14 15 15 15 15 15 14 14 14 14 15 15 16 16 16 16 16 16 16 16 16 16 17 18
7 8 8 7 7 6 7 8 8 9 10 10 10 9 8 7 7 7 8 8 8 8 7 7 7 7 7 6 6 7 7 8 7 6 6 6 7 8 9 10 11 12 12 13 14 14 13 13 13 14 14 14 15 16 17 17 18 18 17 16 15 15 16 17 16 16 15 15 15 15 15 15 15 16 16 17 17 16 16 16 16 17 17 17 17 18
8 8 8 8 8 8 7 8 8 9 10 10 10 9 8 7 7 7 7 8 8 7 7 7 6 5 5 6 6 6 6 7 7 7 6 5 5 6 7 8 9 10 12 13 14 15 16 15 15 14 14 15 15 16 17 17 17 17 17 16 15 15 16 16 16 15 15 15 15 15 15 15 16 16 17 17 18 17 17 16 16 16 17 17 17 18
9 9 9 9 9 9 9 8 8 8 8 9 10 10 8 7 7 6 7 7 6 6 6 5 5 5 6 6 6 6 6 7 8 8 9 8 7 6 6 7 8 9 10 12 13 15 16 17 17 16 15 15 15 16 17 16 16 16 16 16 15 15 16 16 16 15 15 15 16 16 16 16 16 17 17 18 18 18 18 17 17 16 16 16 17 17
10 10 9 10 10 9 8 8 7 7 8 10 10 10 9 7 6 6 6 5 5 4 4 4 5 5 6 7 7 7 7 7 8 8 9 10 10 8 7 6 7 8 10 11 13 14 16 17 17 17 17 16 16 16 17 16 15 15 15 15 15 15 16 16 16 15 15 16 16 17 17 16 16 16 17 19 20 20 19 19 18 17 17 17 17 18
11 11 11 11 11 11 10 9 8 8 8 9 9 9 8 7 6 5 5 5 4 4 5 5 5 6 6 7 7 7 7 8 8 8 9 9 10 9 9 8 9 9 11 12 13 13 14 15 16 17 18 18 18 18 18 17 15 15 15 15 15 16 16 17 17 16 16 16 17 18 18 17 17 17 18 19 21 22 22 20 19 18 17 17 17 18
12 12 12 13 13 13 12 11 10 9 9 8 8 7 7 7 7 6 6 5 5 5 6 6 6 6 7 7 7 7 7 7 8 8 8 8 8 9 9 9 10 10 11 10 10 10 11 12 13 15 16 17 18 19 19 17 16 15 15 15 15 16 16 17 17 17 16 16 17 18 19 18 18 18 17 18 20 21 22 21 20 19 17 16 16 17
12 13 13 13 14 14 13 12 11 10 9 9 8 8 7 7 7 6 6 6 6 6 7 7 7 7 7 8 8 8 8 7 8 8 8 8 7 8 8 8 8 8 8 8 8 8 8 9 10 11 12 14 15 17 18 17 16 15 15 15 15 15 16 16 17 17 17 17 17 18 18 18 17 16 16 16 18 20 21 21 20 19 17 16 16 17
Wind_Direction
335 3 38 53 66 85 82 15 13 12 335 314 290 256 231 208 196 192 190 187 185 186 189 190 192 194 196 199 203 210 220 234 252 269 280 285 287 289 290 291 290 287 280 272 265 259 258 258 259 260 262 263 268 274 281 284 284 283 283 283 282 281 281 280 279 279 279 280 280 281 282 283 284 284 282 282 280 279 279 279 279 278 276 276 277 278
16 46 60 65 80 111 136 147 175 192 199 212 223 224 218 208 202 198 193 190 187 185 186 189 192 195 199 207 217 230 248 266 281 290 294 294 292 290 288 287 283 276 269 263 259 257 258 259 260 261 264 268 274 279 282 282 282 282 282 281 281 280 279 278 277 277 277 277 277 277 277 277 277 277 278 279 279 279 278 278 278 277 275 275 274 274
54 71 74 74 87 122 156 168 182 194 200 206 213 212 205 201 200 200 197 196 196 196 196 199 204 211 220 232 246 260 274 284 290 294 294 290 284 278 275 272 268 264 260 257 257 259 259 260 261 264 268 272 276 279 280 281 283 284 283 282 280 279 277 276 276 276 275 275 274 274 274 274 275 276 277 278 279 279 277 276 275 274 273 272 271 270
101 120 108 77 80 119 175 190 194 195 195 197 198 195 193 196 198 200 201 202 205 210 214 219 226 236 247 257 267 277 284 288 291 290 284 275 264 255 251 253 256 257 258 258 258 259 259 260 262 265 269 273 276 280 283 286 287 287 285 283 280 278 277 276 274 274 273 272 273 273 273 274 276 277 278 278 278 278 276 274 272 272 272 270 269 268
139 134 121 80 57 229 224 221 220 219 214 210 204 198 196 204 210 213 216 221 226 234 241 247 254 261 268 274 278 281 284 285 282 274 262 252 242 236 237 247 255 258 259 259 258 257 258 261 265 269 274 278 282 285 288 289 289 288 286 284 281 278 276 274 272 271 271 271 273 274 274 275 276 276 276 276 277 276 275 274 274 273 271 269 268 268
155 127 82 332 262 264 281 254 245 243 245 244 243 242 240 241 243 247 250 254 258 262 266 269 272 274 277 279 279 279 277 272 263 248 234 227 226 231 241 252 258 260 259 255 253 254 259 267 273 276 280 283 286 287 289 289 289 288 286 283 279 276 275 273 272 272 273 273 273 274 274 275 275 275 275 275 276 276 276 275 275 274 272 271 269 268
141 99 57 329 284 278 274 262 256 254 257 259 261 263 263 264 265 267 269 271 272 274 276 277 278 278 277 276 273 270 263 252 239 229 220 217 216 221 235 245 251 251 246 243 246 255 264 271 276 279 280 282 285 286 287 288 287 285 282 279 276 274 273 272 272 271 272 272 273 273 274 273 273 274 273 274 274 274 274 274 274 273 272 271 270 268
131 101 29 265 257 257 255 253 252 252 253 257 262 267 269 271 272 273 273 274 274 276 277 278 277 274 267 260 252 244 236 229 225 223 222 221 219 218 221 225 229 231 232 238 246 257 264 269 274 278 280 282 284 284 285 285 283 281 277 274 272 270 270 271 271 271 271 271 271 272 273 273 273 273 273 273 273 272 272 271 271 270 270 269 269 268
132 148 171 221 233 234 237 241 245 246 246 247 250 257 267 272 275 277 277 276 274 272 269 260 250 238 229 224 220 218 219 220 224 229 233 233 231 229 227 228 231 233 236 243 251 259 266 271 275 279 282 283 284 285 284 283 281 278 274 270 268 267 267 268 268 268 269 269 270 272 273 273 274 274 273 272 272 271 269 269 268 267 267 266 266 267
128 159 169 179 196 208 214 220 233 241 238 237 238 243 250 258 267 269 266 257 256 255 241 228 220 220 223 228 231 232 234 236 238 241 244 245 245 244 242 242 243 245 248 253 259 265 270 275 279 282 284 286 287 287 286 284 281 277 273 268 266 265 264 264 265 266 268 269 271 272 273 273 273 273 272 271 270 269 268 267 266 266 265 265 265 266
143 159 168 167 169 178 190 197 209 218 214 211 215 228 241 243 244 240 232 231 237 241 243 247 247 247 246 247 248 248 249 249 250 251 252 254 256 256 256 256 256 257 258 262 266 271 275 279 283 285 287 288 289 289 288 286 282 278 274 269 265 263 262 262 263 265 267 270 272 273 273 272 271 270 270 269 268 268 267 267 266 266 266 266 266 267
144 150 159 160 161 166 175 183 186 176 161 169 202 245 257 259 261 262 260 257 257 258 262 261 262 261 260 259 257 256 255 255 254 255 257 260 261 263 264 264 264 265 267 269 272 275 279 283 286 288 289 289 289 289 287 285 282 279 275 271 267 265 263 263 265 267 270 271 272 272 272 271 270 268 268 268 268 268 268 268 268 268 269 269 269 269
134 142 152 159 162 162 162 163 168 179 211 263 280 282 280 281 281 281 282 282 280 278 277 277 275 272 267 265 263 262 259 258 257 257 259 260 262 264 265 266 267 269 272 274 276 280 285 288 290 290 289 289 288 286 285 283 281 279 276 274 271 268 267 267 269 270 272 272 272 271 270 270 269 267 267 268 268 269 269 270 270 270 271 271 271 271
132 144 157 163 169 176 176 177 200 253 280 287 293 295 296 298 296 294 292 293 291 286 283 285 286 284 276 270 267 265 264 262 261 259 258 259 262 265 267 269 270 273 276 280 283 287 292 293 292 291 288 287 286 285 284 282 281 279 277 275 273 271 271 271 272 272 273 271 270 269 269 269 269 267 267 268 269 270 270 271 271 272 272 272 272 272
143 153 160 167 176 185 196 209 248 282 290 295 301 306 306 304 300 296 297 298 295 289 285 285 286 285 280 273 269 267 266 263 262 259 258 258 262 267 271 274 277 279 283 287 291 295 297 295 292 289 286 285 284 284 284 283 281 279 277 276 274 274 274 273 273 272 271 270 269 269 269 270 270 269 269 269 270 270 271 271 272 272 272 272 272 272
150 152 150 153 164 178 189 197 232 292 302 319 327 322 313 311 305 297 299 305 302 297 297 302 299 290 279 274 270 266 264 262 261 261 260 260 264 270 276 282 286 288 291 295 298 300 300 295 290 286 284 284 285 285 284 283 281 279 278 278 276 276 275 273 272 271 270 269 269 270 270 270 271 271 271 271 271 271 271 271 271 271 271 272 272 272
147 145 137 134 135 134 125 111 94 81 66 55 47 36 24 14 1 340 330 324 322 323 325 329 321 307 289 281 272 264 260 263 267 269 271 274 276 279 284 289 294 296 298 301 303 304 301 294 288 284 284 283 283 282 279 277 275 274 274 273 272 271 270 269 268 267 268 269 269 270 271 271 271 271 271 271 271 270 270 270 270 270 270 271 271 271
135 131 127 121 115 109 101 92 82 74 65 60 54 50 47 43 31 20 7 355 357 1 353 333 308 302 304 306 294 277 269 278 285 289 291 291 290 291 293 296 298 300 302 305 307 306 300 293 288 284 282 280 277 272 269 265 264 263 262 261 261 262 262 263 263 263 265 265 267 268 270 270 271 271 271 271 270 270 270 270 270 270 270 270 270 271
126 122 119 116 112 105 95 84 73 63 57 52 45 42 43 31 18 5 354 343 337 332 323 311 289 277 279 286 289 287 286 290 295 299 302 299 297 297 300 302 302 302 304 306 307 306 299 293 287 284 280 276 272 267 263 260 258 257 257 258 258 259 260 261 262 263 264 265 265 266 267 269 270 270 270 270 270 269 269 269 269 270 270 270 271 271
125 121 114 111 107 101 93 76 56 43 39 33 29 24 15 358 347 337 326 321 316 313 310 305 290 277 272 273 280 287 292 296 301 303 303 299 297 298 302 304 304 303 304 306 307 306 300 295 290 285 280 275 270 265 260 257 256 256 257 258 259 260 261 263 263 264 264 265 265 265 266 268 269 270 270 269 269 269 269 269 270 270 270 271 271 271
134 128 121 115 111 110 102 69 32 15 12 11 12 356 320 321 321 316 309 309 309 308 306 299 287 280 280 278 284 292 298 302 306 307 305 301 299 301 305 308 307 306 306 308 309 308 303 299 295 291 285 278 270 262 257 253 253 254 256 258 259 261 262 263 264 265 265 265 265 266 266 268 269 270 269 269 269 269 269 270 270 270 271 271 271 271
151 141 132 128 125 121 107 61 13 355 346 345 336 311 303 308 312 309 304 304 303 301 296 289 286 287 289 289 290 295 301 305 308 309 308 302 298 301 310 313 312 310 309 312 314 313 310 306 303 298 290 280 269 260 254 251 251 252 255 258 260 262 263 265 265 266 267 267 267 268 269 269 269 269 269 269 269 270 270 270 271 271 271 271 271 271
178 163 149 138 130 121 61 355 335 324 316 313 308 304 304 308 310 310 307 304 300 296 291 291 290 291 292 293 294 298 303 308 311 312 309 297 296 303 312 316 315 313 312 316 319 320 318 316 313 306 293 277 265 256 252 249 250 251 254 258 261 263 265 266 267 267 267 267 267 267 268 268 268 268 269 269 270 270 270 271 271 271 272 272 272 271
184 177 170 150 132 338 330 324 315 306 302 299 298 299 300 302 302 302 302 299 296 294 293 293 292 292 292 293 297 301 305 310 313 313 305 291 292 302 311 317 317 315 314 318 322 323 323 323 321 311 292 273 260 252 249 247 248 250 253 256 259 261 262 262 262 262 262 262 263 263 264 265 266 266 267 268 269 269 270 270 271 271 272 272 272 271
168 162 160 128 325 316 313 312 304 299 300 295 292 291 292 294 294 293 291 289 288 289 290 292 293 293 293 296 300 305 308 312 313 308 298 290 292 299 309 318 319 316 316 319 322 325 326 328 326 315 288 265 253 246 241 238 238 240 244 247 249 251 252 253 254 255 256 258 259 261 262 263 264 265 267 268 269 270 271 271 272 273 273 273 272 271
148 139 131 126 223 252 258 273 282 292 300 296 291 289 288 287 287 285 282 279 278 279 282 285 286 287 290 296 300 303 307 310 309 303 292 288 290 297 308 320 322 319 318 320 323 327 329 331 329 314 273 250 240 232 222 217 217 222 229 235 240 245 249 252 255 257 259 260 262 263 264 265 266 267 269 271 272 272 273 273 274 275 275 274 273 272
157 160 173 198 221 238 251 260 267 274 283 287 290 291 288 284 280 275 270 267 267 269 271 275 280 285 289 291 294 298 302 302 299 295 291 286 285 291 305 319 322 321 321 321 323 326 329 328 321 293 246 230 223 216 208 206 208 216 224 234 244 254 261 266 268 268 268 268 268 268 268 269 270 271 272 274 274 274 275 276 276 276 276 276 275 273
229 241 249 256 262 267 272 275 275 276 277 276 278 281 281 275 269 263 259 261 262 263 262 266 273 280 285 287 292 296 298 295 291 288 287 285 280 284 302 317 322 323 325 324 325 327 331 326 290 234 216 212 207 203 200 201 207 218 238 258 271 278 279 279 277 275 273 272 272 271 272 272 273 273 273 274 274 274 275 276 277 278 278 277 275 273
258 263 267 271 273 275 278 280 283 285 285 281 274 266 264 263 261 258 259 262 262 259 258 259 264 271 278 285 292 296 295 290 283 279 278 281 278 285 305 316 323 327 331 330 328 330 338 335 231 203 195 194 190 187 190 207 238 266 279 284 286 286 284 281 278 276 274 272 272 272 272 272 272 272 271 272 273 273 273 275 277 279 278 277 274 272
263 266 269 272 276 280 284 289 295 299 301 298 287 274 264 261 259 259 261 261 259 257 256 259 262 266 273 285 295 298 291 278 264 260 279 281 284 295 309 316 323 330 337 337 332 329 333 331 218 182 182 185 191 209 251 281 291 294 294 292 290 288 285 282 279 278 278 278 277 277 276 275 274 273 272 272 272 272 272 274 276 278 277 275 273 271
271 273 277 282 287 291 295 299 304 308 311 309 303 291 276 265 260 258 258 258 258 258 258 260 262 264 266 274 284 294 282 248 250 276 299 297 293 298 308 315 321 328 338 344 340 326 323 320 277 201 232 266 280 288 295 301 305 307 306 305 303 300 298 296 294 293 292 291 289 287 284 282 280 277 276 274 274 273 273 274 275 277 277 276 274 272
277 279 283 288 292 296 299 303 306 310 312 311 307 298 284 269 260 255 255 256 257 258 259 261 263 263 262 255 248 250 262 263 275 289 299 298 295 298 307 313 317 322 330 334 325 308 305 301 299 297 295 297 299 302 307 314 319 323 322 319 316 313 311 310 309 307 305 302 299 295 291 288 285 282 281 279 277 275 274 274 274 275 276 276 274 273
276 280 285 289 293 296 300 303 306 308 309 308 304 296 283 269 259 254 253 254 256 257 258 260 261 262 261 256 253 255 263 271 279 286 291 292 292 297 304 308 310 311 314 312 301 285 277 283 293 299 301 300 301 304 311 317 322 324 322 318 315 313 314 314 313 312 311 309 306 302 299 295 292 290 288 286 284 282 279 277 274 273 274 274 274 274
279 283 288 291 294 297 299 302 304 305 304 300 294 286 275 264 256 253 252 253 254 255 256 257 258 259 260 259 258 261 268 276 281 283 286 287 288 291 299 301 302 303 305 303 297 288 281 283 289 297 301 301 300 300 303 310 315 318 316 313 310 309 311 312 313 313 313 312 310 308 306 305 303 300 298 296 293 291 288 283 278 275 273 272 273 275
281 285 289 293 295 298 300 301 301 298 292 283 276 268 260 255 252 251 252 252 253 254 255 257 258 259 261 261 261 265 274 282 285 282 283 282 283 287 293 292 293 296 297 296 294 292 289 288 290 295 300 302 302 299 299 306 312 313 311 309 307 307 309 312 314 315 315 313 311 310 309 310 309 308 306 304 302 299 295 290 285 280 276 273 272 272
286 289 293 296 298 299 299 296 290 280 270 262 255 250 247 246 248 250 252 254 256 256 257 259 261 263 265 267 268 271 277 282 280 276 274 274 276 279 283 284 286 288 288 288 288 289 290 291 292 293 295 298 299 300 302 307 311 312 310 308 307 307 310 313 315 315 314 312 310 308 308 309 309 309 308 307 306 302 296 290 285 281 278 275 271 269
292 296 299 300 300 299 296 285 269 256 251 246 243 241 241 243 246 249 254 257 259 261 263 264 266 268 269 271 273 276 279 280 276 271 270 270 270 271 273 276 279 279 277 279 282 285 287 291 293 293 292 290 292 298 304 308 311 310 308 306 305 305 307 310 313 312 310 307 306 305 305 305 305 304 304 305 304 301 296 292 288 286 283 279 274 270
297 300 301 301 300 296 287 263 247 243 241 238 238 240 243 245 248 252 257 260 262 264 266 267 269 270 272 273 275 277 279 279 277 275 273 271 270 269 268 271 273 273 271 271 274 279 282 286 290 292 291 289 289 293 299 305 308 307 306 306 305 303 302 305 308 308 305 304 304 304 303 301 300 299 299 301 302 301 299 298 296 294 291 288 284 279
299 300 300 297 293 284 266 246 241 242 243 243 243 246 248 252 256 259 262 265 267 268 269 270 271 271 272 273 275 276 278 278 279 278 277 274 271 269 267 268 269 270 270 269 269 270 272 275 278 283 288 291 293 295 298 301 303 305 306 308 307 305 302 304 305 304 302 302 303 303 302 299 297 297 299 302 303 302 299 297 295 294 291 290 288 286
296 295 293 289 281 270 256 249 250 253 253 251 252 255 258 261 264 266 269 271 273 274 274 274 274 274 274 274 274 275 276 277 278 278 277 274 272 270 268 266 267 268 270 270 268 266 265 267 270 274 278 284 290 293 296 297 299 303 307 308 307 305 305 304 303 300 299 299 299 300 299 298 298 299 299 299 298 296 294 293 292 290 288 288 287 287
289 285 282 277 271 264 258 258 261 262 263 263 265 267 268 271 272 273 273 273 274 276 277 277 277 277 276 276 275 275 276 277 277 277 275 273 270 267 266 265 265 266 268 268 267 265 263 264 268 271 274 278 284 288 290 292 295 299 302 301 300 300 302 301 299 296 295 296 297 297 297 297 296 295 294 294 292 290 290 290 290 289 288 286 283 282
278 273 271 270 265 261 263 266 268 268 270 271 271 271 272 275 277 278 277 277 276 275 274 275 276 276 275 274 273 274 274 275 275 274 271 268 264 261 260 260 262 264 266 267 266 265 263 263 265 268 272 276 282 286 288 289 291 294 295 295 296 300 302 300 297 296 296 297 298 298 297 295 294 293 293 292 291 290 289 286 285 284 283 281 278 276
268 268 270 271 268 267 270 273 275 276 277 276 273 272 273 277 279 280 282 284 284 282 280 278 277 277 278 277 276 273 271 269 267 266 262 258 254 253 252 254 257 261 264 264 265 265 265 264 264 265 269 274 278 281 284 287 290 291 290 291 294 298 299 297 298 299 298 297 297 296 295 294 294 295 294 292 290 288 287 284 282 280 277 275 274 273
264 266 270 270 271 273 277 279 281 283 284 283 282 280 279 278 278 279 282 285 286 286 286 284 282 285 289 292 292 290 287 279 269 260 251 246 244 245 248 251 254 258 260 260 262 265 268 267 266 266 269 271 273 276 279 283 286 288 288 288 288 286 284 288 293 296 296 295 293 292 292 293 293 294 293 291 289 287 285 284 281 279 276 274 273 272
262 264 264 263 261 263 270 275 278 281 285 287 288 287 285 279 276 276 280 284 285 285 285 285 291 297 297 295 298 301 300 297 289 274 253 241 239 243 248 252 256 258 260 260 261 262 265 267 269 270 272 271 271 272 274 278 282 284 285 286 285 282 280 284 287 290 291 291 291 291 292 294 294 294 292 291 289 287 286 284 282 280 278 276 274 272
259 260 260 260 258 257 260 269 275 280 284 286 287 287 286 280 275 273 275 278 280 280 281 285 293 296 289 290 294 298 296 295 295 295 290 271 255 252 255 258 260 261 263 264 264 264 263 264 267 271 274 274 272 270 270 272 276 280 283 284 284 284 283 284 284 285 286 287 288 290 293 294 295 293 291 290 290 289 287 284 282 280 279 277 274 272
255 256 256 257 258 260 265 272 276 278 279 280 283 286 286 282 275 271 271 273 274 279 284 289 288 281 276 281 286 290 292 291 292 296 300 300 293 281 273 268 266 266 268 270 271 270 268 267 267 268 269 271 272 272 271 270 271 274 278 282 283 284 284 284 284 284 284 284 285 287 291 293 293 291 291 291 290 289 288 285 282 280 278 277 275 273
254 253 253 255 257 261 266 271 274 276 278 280 284 288 290 286 279 275 276 272 271 276 282 279 275 272 272 275 277 280 283 286 288 290 292 298 300 300 294 287 281 278 277 277 278 277 275 273 271 267 263 261 265 269 272 272 271 272 275 278 280 281 281 282 284 285 285 283 283 285 287 288 287 288 290 292 292 291 289 287 285 282 279 277 275 274
254 253 253 255 259 262 266 269 271 273 276 279 283 287 290 292 285 276 274 270 267 267 268 267 267 270 271 273 275 277 278 281 284 287 288 293 298 301 302 300 299 297 293 289 286 283 280 276 272 266 260 255 256 262 268 270 271 272 273 274 275 277 279 281 283 285 284 283 284 285 286 283 282 284 287 288 289 289 289 288 286 283 280 277 275 273
255 254 255 257 260 263 266 268 269 269 270 274 276 278 282 286 286 281 275 270 266 263 260 260 262 266 269 272 275 277 277 278 281 283 285 289 292 296 298 300 301 301 300 296 291 286 283 281 275 267 259 254 253 256 261 266 270 272 273 272 272 274 276 279 282 284 284 285 285 285 285 283 281 281 281 281 283 286 288 288 287 285 282 279 276 274
255 255 256 258 260 263 266 266 265 264 265 267 270 273 275 275 275 275 273 268 262 258 256 257 259 261 265 269 273 273 273 274 276 279 281 285 288 290 292 293 295 296 296 295 294 292 290 289 286 279 270 256 250 251 255 260 266 272 272 272 273 274 275 278 281 283 284 285 286 286 285 284 282 280 277 277 281 285 287 288 287 286 285 283 280 278